BREEZE-KM R/B (44518 NORAD) Tracking and Keplerian Element Data

This shows tracking and keplerian element data for the satellite.

Feedback or suggestion? Click here.




ElementValue
Catalog44518
NameBREEZE-KM R/B
Epoch Orbit277
Epoch Day262.09511587
Epoch Year2019
RAAN269.1742
Inclination99.2282
Eccentricity0.019851
Argument of Perigee200.8215
Mean Anonmoly158.4794
Mean Motion14.24630519
Decay Rate-6.4E-07
L11 44518U 19057B 19262.09511587 -.00000064 00000-0 -36618-5 0 9991
L22 44518 99.2282 269.1742 0198510 200.8215 158.4794 14.24630519 2778

Live tracking and technical data element details for BREEZE-KM R/B (NORAD 44518). BREEZE-KM R/B can be tracked NOW for your location showing map with azimuth and elevation plus other details from your city location.

Track the satellite on the map from your city or location and see movement details for azimuth, elevation, latitude, longitude, range, height, and movement on the map or in text.







IsCatalogInMostPopularTable: catalog: 44518, numindb: 6
Update: records affected: 1



GetName: 44518 BREEZE-KM R/B

Hit Count: updated at: Thu, 19 Sep 2019 17:09:25 GMT